Location: 22
(39.7117°N, 89.5929°W)
Time: 19:19:04
(UTC-05:00)

Vanguard 3 - Pass Details

Date: 31 January 2023
Orbit: 508 x 3249 km, 33.4° (Epoch: 30 March)

Event Time Altitude Azimuth Distance (km) Brightness Sun altitude
Rises 02:41:54 0° 281° (W) 6,915 - -50.6°
Reaches altitude 10° 02:47:29 10° 271° (W) 6,089 - -49.7°
Maximum altitude 03:01:58 27° 223° (SW) 4,818 - -47.0°
Exits shadow 03:12:13 16° 183° (S) 5,189 11.0 -45.2°
Drops below altitude 10° 03:15:16 10° 174° (S) 5,510 11.2 -44.6°
Sets 03:20:05 0° 163° (SSE) 6,165 11.7 -43.7°
